| time (UTC) | temp F | wind direction | speed MPH | gust MPH | rain 1hr in | rain 24hr in | rain mn in | humidity % | barometer mb |
| 20260510203711 | 74 | 226 | 1.0 | 5.0 | 0.00 | 0.03 | 0.00 | 61 | 1012.7 |
| 20260510202710 | 75 | 213 | 1.0 | 5.0 | 0.00 | 0.03 | 0.00 | 60 | 1012.6 |
| 20260510201710 | 75 | 273 | 1.0 | 7.0 | 0.00 | 0.03 | 0.00 | 58 | 1012.6 |
| 20260510200709 | 76 | 237 | 2.0 | 7.0 | 0.00 | 0.03 | 0.00 | 61 | 1012.7 |
| 20260510195711 | 77 | 257 | 1.0 | 6.0 | 0.00 | 0.03 | 0.00 | 61 | 1012.7 |
| 20260510194710 | 76 | 266 | 1.0 | 5.0 | 0.00 | 0.03 | 0.00 | 64 | 1012.7 |
| 20260510193711 | 77 | 252 | 2.0 | 9.0 | 0.00 | 0.03 | 0.00 | 60 | 1012.7 |
| 20260510192710 | 77 | 255 | 1.0 | 4.0 | 0.00 | 0.03 | 0.00 | 64 | 1012.9 |
| 20260510191711 | 76 | 290 | 1.0 | 6.0 | 0.00 | 0.03 | 0.00 | 64 | 1012.9 |
| 20260510190705 | 76 | 288 | 1.0 | 6.0 | 0.00 | 0.03 | 0.00 | 66 | 1013.1 |
| 20260510183704 | 75 | 282 | 3.0 | 11.0 | 0.00 | 0.03 | 0.00 | 59 | 1013.0 |
| 20260510182703 | 78 | 236 | 1.0 | 5.0 | 0.00 | 0.03 | 0.00 | 62 | 1013.0 |
| 20260510181703 | 76 | 267 | 2.0 | 7.0 | 0.00 | 0.03 | 0.00 | 63 | 1012.9 |
| 20260510180704 | 76 | 260 | 2.0 | 7.0 | 0.00 | 0.03 | 0.00 | 64 | 1012.9 |
| 20260510175703 | 76 | 238 | 2.0 | 9.0 | 0.00 | 0.03 | 0.00 | 65 | 1012.9 |
| 20260510174705 | 76 | 278 | 2.0 | 6.0 | 0.00 | 0.03 | 0.00 | 65 | 1012.9 |
| 20260510173659 | 76 | 210 | 2.0 | 9.0 | 0.00 | 0.03 | 0.00 | 65 | 1012.9 |
| 20260510172659 | 76 | 149 | 0.0 | 2.0 | 0.00 | 0.03 | 0.00 | 68 | 1012.7 |
| 20260510171656 | 75 | 226 | 0.0 | 2.0 | 0.00 | 0.03 | 0.00 | 72 | 1012.8 |
| 20260510170656 | 74 | 75 | 0.0 | 4.0 | 0.00 | 0.03 | 0.00 | 75 | 1012.8 |
| 20260510165655 | 73 | 75 | 0.0 | 1.0 | 0.00 | 0.03 | 0.00 | 76 | 1013.0 |
| 20260510164658 | 72 | 181 | 0.0 | 3.0 | 0.00 | 0.03 | 0.00 | 75 | 1013.0 |
| 20260510163656 | 72 | 189 | 0.0 | 1.0 | 0.00 | 0.03 | 0.00 | 76 | 1013.0 |
| 20260510160656 | 69 | 68 | 0.0 | 2.0 | 0.00 | 0.03 | 0.00 | 80 | 1013.0 |
| 20260510153656 | 66 | 150 | 0.0 | 0.0 | 0.00 | 0.03 | 0.00 | 85 | 1013.7 |
| 20260510151655 | 63 | 43 | 0.0 | 0.0 | 0.00 | 0.03 | 0.00 | 93 | 1013.8 |
| 20260510150657 | 62 | 70 | 0.0 | 0.0 | 0.00 | 0.03 | 0.00 | 97 | 1013.6 |
| 20260510145656 | 61 | 96 | 0.0 | 0.0 | 0.00 | 0.03 | 0.00 | 99 | 1013.4 |
| 20260510144652 | 60 | 97 | 0.0 | 0.0 | 0.00 | 0.03 | 0.00 | 99 | 1013.4 |
| 20260510143651 | 59 | 136 | 0.0 | 0.0 | 0.00 | 0.03 | 0.00 | 99 | 1013.5 |
| 20260510142652 | 58 | 206 | 0.0 | 0.0 | 0.00 | 0.03 | 0.00 | 99 | 1013.5 |
| 20260510140647 | 56 | 150 | 0.0 | 0.0 | 0.00 | 0.03 | 0.00 | 100 | 1013.5 |
| 20260510135647 | 55 | 247 | 0.0 | 0.0 | 0.00 | 0.03 | 0.00 | 100 | 1013.5 |
| 20260510134643 | 55 | 210 | 0.0 | 0.0 | 0.00 | 0.03 | 0.00 | 100 | 1013.4 |
| 20260510133645 | 55 | 234 | 0.0 | 0.0 | 0.00 | 0.03 | 0.00 | 100 | 1013.4 |
| 20260510132639 | 55 | 169 | 0.0 | 3.0 | 0.00 | 0.03 | 0.00 | 100 | 1013.6 |
| 20260510130640 | 54 | 274 | 0.0 | 0.0 | 0.00 | 0.03 | 0.00 | 100 | 1013.4 |
| 20260510125639 | 54 | 258 | 0.0 | 0.0 | 0.00 | 0.03 | 0.00 | 100 | 1013.2 |
| 20260510124639 | 54 | 258 | 0.0 | 0.0 | 0.00 | 0.03 | 0.00 | 100 | 1013.2 |
| 20260510123639 | 53 | 105 | 0.0 | 0.0 | 0.00 | 0.03 | 0.00 | 100 | 1012.9 |
| 20260510122640 | 53 | 146 | 0.0 | 0.0 | 0.00 | 0.03 | 0.00 | 100 | 1012.9 |
| 20260510121637 | 53 | 213 | 0.0 | 0.0 | 0.00 | 0.03 | 0.00 | 100 | 1012.9 |
| 20260510120636 | 53 | 227 | 0.0 | 0.0 | 0.00 | 0.03 | 0.00 | 100 | 1012.8 |
| 20260510115637 | 53 | 236 | 0.0 | 0.0 | 0.00 | 0.03 | 0.00 | 100 | 1012.7 |
| 20260510114638 | 53 | 236 | 0.0 | 0.0 | 0.00 | 0.03 | 0.00 | 100 | 1012.6 |
| 20260510113638 | 52 | 236 | 0.0 | 0.0 | 0.00 | 0.03 | 0.00 | 100 | 1012.6 |
| 20260510112637 | 52 | 236 | 0.0 | 0.0 | 0.00 | 0.03 | 0.00 | 100 | 1012.7 |
| 20260510111636 | 51 | 236 | 0.0 | 0.0 | 0.00 | 0.03 | 0.00 | 100 | 1012.6 |
| 20260510110637 | 51 | 236 | 0.0 | 0.0 | 0.00 | 0.03 | 0.00 | 100 | 1012.4 |
| 20260510105634 | 51 | 236 | 0.0 | 0.0 | 0.00 | 0.03 | 0.00 | 100 | 1012.3 |
| 20260510104635 | 51 | 237 | 0.0 | 0.0 | 0.00 | 0.03 | 0.00 | 100 | 1012.2 |
| 20260510103635 | 50 | 74 | 0.0 | 0.0 | 0.00 | 0.03 | 0.00 | 100 | 1012.0 |
| 20260510102636 | 50 | 75 | 0.0 | 0.0 | 0.00 | 0.03 | 0.00 | 100 | 1012.0 |
| 20260510101635 | 50 | 75 | 0.0 | 0.0 | 0.00 | 0.03 | 0.00 | 100 | 1012.1 |
| 20260510100636 | 50 | 75 | 0.0 | 0.0 | 0.00 | 0.03 | 0.00 | 100 | 1011.9 |
| 20260510095634 | 49 | 75 | 0.0 | 0.0 | 0.00 | 0.03 | 0.00 | 100 | 1011.8 |
| 20260510093634 | 50 | 75 | 0.0 | 0.0 | 0.00 | 0.03 | 0.00 | 100 | 1012.0 |
| 20260510092636 | 50 | 46 | 0.0 | 0.0 | 0.00 | 0.03 | 0.00 | 100 | 1012.1 |
| 20260510091634 | 50 | 43 | 0.0 | 0.0 | 0.00 | 0.03 | 0.00 | 100 | 1011.9 |
| 20260510090634 | 51 | 41 | 0.0 | 0.0 | 0.00 | 0.03 | 0.00 | 100 | 1012.1 |
| 20260510085633 | 51 | 338 | 0.0 | 3.0 | 0.00 | 0.03 | 0.00 | 100 | 1012.2 |
| 20260510084631 | 51 | 66 | 0.0 | 0.0 | 0.00 | 0.03 | 0.00 | 100 | 1011.8 |
| 20260510083632 | 51 | 124 | 0.0 | 1.0 | 0.00 | 0.03 | 0.00 | 100 | 1011.7 |
| 20260510082631 | 51 | 41 | 0.0 | 0.0 | 0.00 | 0.03 | 0.00 | 100 | 1011.4 |
| 20260510081628 | 51 | 41 | 0.0 | 0.0 | 0.00 | 0.03 | 0.00 | 100 | 1011.3 |
| 20260510080630 | 51 | 41 | 0.0 | 0.0 | 0.00 | 0.03 | 0.00 | 100 | 1011.4 |
| 20260510075627 | 51 | 41 | 0.0 | 0.0 | 0.00 | 0.03 | 0.00 | 100 | 1011.3 |
| 20260510074628 | 51 | 41 | 0.0 | 0.0 | 0.00 | 0.03 | 0.00 | 100 | 1011.3 |
| 20260510073628 | 51 | 41 | 0.0 | 0.0 | 0.00 | 0.03 | 0.00 | 100 | 1011.3 |
| 20260510072627 | 51 | 41 | 0.0 | 0.0 | 0.00 | 0.03 | 0.00 | 100 | 1011.1 |
| 20260510071628 | 51 | 41 | 0.0 | 0.0 | 0.00 | 0.03 | 0.00 | 100 | 1011.2 |
| 20260510065626 | 50 | 26 | 0.0 | 1.0 | 0.00 | 0.03 | 0.00 | 100 | 1011.1 |
| 20260510064627 | 50 | 26 | 0.0 | 1.0 | 0.00 | 0.03 | 0.00 | 100 | 1011.1 |
| 20260510063629 | 49 | 26 | 0.0 | 0.0 | 0.00 | 0.03 | 0.00 | 100 | 1011.0 |
| 20260510062625 | 49 | 26 | 0.0 | 0.0 | 0.00 | 0.03 | 0.00 | 100 | 1011.0 |
| 20260510060623 | 49 | 26 | 0.0 | 0.0 | 0.00 | 0.03 | 0.00 | 99 | 1011.0 |
| 20260510055624 | 49 | 26 | 0.0 | 0.0 | 0.00 | 0.03 | 0.00 | 99 | 1011.2 |
| 20260510054622 | 49 | 26 | 0.0 | 0.0 | 0.00 | 0.03 | 0.00 | 100 | 1011.3 |
| 20260510053613 | 49 | 26 | 0.0 | 0.0 | 0.00 | 0.03 | 0.00 | 100 | 1011.3 |
| 20260510052611 | 49 | 26 | 0.0 | 0.0 | 0.00 | 0.03 | 0.00 | 100 | 1011.3 |
| 20260510051611 | 49 | 26 | 0.0 | 0.0 | 0.00 | 0.03 | 0.00 | 100 | 1011.5 |
| 20260510045612 | 49 | 26 | 0.0 | 0.0 | 0.00 | 0.03 | 0.00 | 99 | 1011.5 |
| 20260510044612 | 48 | 26 | 0.0 | 0.0 | 0.00 | 0.03 | 0.00 | 99 | 1011.5 |
| 20260510043612 | 48 | 26 | 0.0 | 0.0 | 0.00 | 0.03 | 0.00 | 99 | 1011.5 |
| 20260510042612 | 48 | 26 | 0.0 | 0.0 | 0.00 | 0.03 | 0.00 | 99 | 1011.6 |
| 20260510041612 | 47 | 26 | 0.0 | 0.0 | 0.00 | 0.03 | 0.00 | 99 | 1011.5 |
| 20260510040613 | 47 | 26 | 0.0 | 0.0 | 0.00 | 0.03 | 0.00 | 99 | 1011.5 |
| 20260510035611 | 47 | 26 | 0.0 | 0.0 | 0.00 | 0.03 | 0.03 | 99 | 1011.4 |
| 20260510034611 | 47 | 26 | 0.0 | 0.0 | 0.00 | 0.03 | 0.03 | 99 | 1011.4 |
| 20260510032611 | 47 | 26 | 0.0 | 0.0 | 0.00 | 0.03 | 0.03 | 99 | 1011.0 |
| 20260510031610 | 47 | 26 | 0.0 | 0.0 | 0.00 | 0.03 | 0.03 | 99 | 1011.2 |
| 20260510030611 | 47 | 26 | 0.0 | 0.0 | 0.00 | 0.03 | 0.03 | 99 | 1011.2 |
| 20260510025612 | 47 | 26 | 0.0 | 0.0 | 0.00 | 0.03 | 0.03 | 98 | 1011.0 |
| 20260510024610 | 47 | 26 | 0.0 | 0.0 | 0.00 | 0.03 | 0.03 | 98 | 1011.0 |
| 20260510023610 | 48 | 26 | 0.0 | 0.0 | 0.00 | 0.03 | 0.03 | 98 | 1011.0 |
| 20260510022609 | 48 | 26 | 0.0 | 0.0 | 0.00 | 0.03 | 0.03 | 98 | 1010.8 |
| 20260510021608 | 48 | 26 | 0.0 | 0.0 | 0.00 | 0.03 | 0.03 | 98 | 1010.9 |
| 20260510015610 | 49 | 26 | 0.0 | 0.0 | 0.00 | 0.03 | 0.03 | 98 | 1011.0 |
| 20260510014604 | 49 | 26 | 0.0 | 0.0 | 0.00 | 0.03 | 0.03 | 98 | 1011.1 |
| 20260510011604 | 51 | 26 | 0.0 | 0.0 | 0.00 | 0.03 | 0.03 | 97 | 1010.8 |
| 20260510010603 | 51 | 26 | 0.0 | 0.0 | 0.00 | 0.03 | 0.03 | 97 | 1010.8 |
| 20260510003602 | 52 | 26 | 0.0 | 0.0 | 0.00 | 0.03 | 0.03 | 97 | 1010.6 |
| 20260510002601 | 53 | 26 | 0.0 | 0.0 | 0.00 | 0.03 | 0.03 | 96 | 1010.5 |
| 20260510001603 | 53 | 26 | 0.0 | 0.0 | 0.00 | 0.03 | 0.03 | 96 | 1010.5 |
| 20260510000601 | 54 | 26 | 0.0 | 0.0 | 0.00 | 0.03 | 0.03 | 96 | 1010.6 |
| 20260509235558 | 55 | 26 | 0.0 | 0.0 | 0.00 | 0.03 | 0.03 | 96 | 1010.5 |
| 20260509234559 | 55 | 26 | 0.0 | 0.0 | 0.00 | 0.03 | 0.03 | 96 | 1010.5 |
| 20260509233557 | 56 | 26 | 0.0 | 1.0 | 0.00 | 0.03 | 0.03 | 95 | 1010.5 |
| 20260509232556 | 56 | 26 | 0.0 | 0.0 | 0.00 | 0.03 | 0.03 | 95 | 1010.5 |
| 20260509231555 | 56 | 26 | 0.0 | 1.0 | 0.00 | 0.03 | 0.03 | 95 | 1010.3 |
| 20260509230554 | 57 | 44 | 0.0 | 1.0 | 0.00 | 0.03 | 0.03 | 95 | 1010.3 |
| 20260509225554 | 57 | 44 | 0.0 | 0.0 | 0.00 | 0.03 | 0.03 | 95 | 1010.5 |
| 20260509224548 | 57 | 55 | 0.0 | 1.0 | 0.01 | 0.03 | 0.03 | 95 | 1010.6 |
| 20260509223548 | 57 | 54 | 0.0 | 1.0 | 0.01 | 0.03 | 0.03 | 95 | 1010.4 |
| 20260509222549 | 57 | 55 | 0.0 | 1.0 | 0.01 | 0.03 | 0.03 | 95 | 1010.4 |
| 20260509221547 | 57 | 64 | 0.0 | 2.0 | 0.02 | 0.03 | 0.03 | 94 | 1010.6 |
| 20260509220546 | 57 | 49 | 0.0 | 1.0 | 0.03 | 0.03 | 0.03 | 96 | 1010.7 |
| 20260509215546 | 57 | 167 | 0.0 | 0.0 | 0.03 | 0.03 | 0.03 | 95 | 1010.7 |
| 20260509214547 | 57 | 167 | 0.0 | 0.0 | 0.02 | 0.02 | 0.02 | 94 | 1011.1 |
| 20260509213546 | 57 | 167 | 0.0 | 0.0 | 0.02 | 0.02 | 0.02 | 92 | 1011.4 |
| 20260509212548 | 58 | 167 | 0.0 | 0.0 | 0.02 | 0.02 | 0.02 | 90 | 1010.9 |
| 20260509211540 | 58 | 167 | 0.0 | 2.0 | 0.00 | 0.00 | 0.00 | 87 | 1010.8 |